Location: Bonningues
(50.7927°N, 2.0150°E)
Time: 16:54:53
(UTC+00:00)

Cosmos 407 Rocket - Pass Details

Date: 08 August 2020
Orbit: 744 x 786 km, 74.0° (Epoch: 25 September)

Event Time Altitude Azimuth Distance (km) Brightness Sun altitude
Rises 20:18:13 0° 184° (S) 3,260 6.4 -8.0°
Reaches altitude 10° 20:20:40 10° 178° (S) 2,333 5.6 -8.3°
Maximum altitude 20:25:44 47° 106° (ESE) 1,026 3.8 -8.9°
Drops below altitude 10° 20:30:47 10° 34° (NE) 2,328 6.1 -9.5°
Sets 20:33:13 0° 29° (NNE) 3,253 6.9 -9.8°
